Date,TemperatureHighF,TemperatureAvgF,TemperatureLowF,DewpointHighF,DewpointAvgF,DewpointLowF,HumidityHigh,HumidityAvg,HumidityLow,PressureMaxIn,PressureMinIn,WindSpeedMaxMPH,WindSpeedAvgMPH,GustSpeedMaxMPH,PrecipitationSumIn
2013-3-1,27.3,25.9,24.6,23.1,21.4,19.7,85,83,79,30.22,30.09,6,1,6,0.00
2013-3-2,34.9,25.5,15.3,22.9,17.9,9.0,83,73,60,30.23,30.18,5,1,5,0.06
2013-3-3,37.8,24.3,11.6,24.1,13.5,6.6,83,65,47,30.19,30.10,2,0,2,0.08
2013-3-4,32.3,27.0,16.3,24.9,19.5,9.7,81,73,61,30.16,30.03,6,1,6,0.01
2013-3-5,32.3,30.8,28.1,29.4,27.2,24.9,90,87,75,30.04,29.85,5,2,5,0.00
2013-3-6,35.3,30.4,26.9,29.1,25.8,23.1,87,83,77,30.33,30.02,4,1,4,0.00
2013-3-7,43.2,33.8,27.5,31.5,25.3,21.5,83,71,58,30.45,30.32,3,0,3,0.00
2013-3-8,40.7,32.5,21.5,28.5,24.2,17.4,86,72,57,30.51,30.33,8,2,8,0.02
2013-3-9,45.0,37.7,30.6,34.5,29.9,23.9,86,73,65,30.33,29.88,11,4,11,0.09
2013-3-10,47.5,44.0,40.7,45.5,41.3,34.1,94,90,67,29.91,29.66,9,2,9,0.60
2013-3-11,45.4,37.3,31.9,43.3,35.5,29.5,95,93,91,29.83,29.59,6,1,6,0.17
2013-3-12,35.9,31.2,25.8,29.7,26.5,20.6,91,83,70,30.04,29.83,6,1,6,0.15
2013-3-13,32.4,27.3,21.4,20.8,17.8,14.1,83,68,50,30.35,30.05,5,1,5,0.07
2013-3-14,35.5,29.6,22.8,29.4,22.3,15.5,89,74,56,30.35,30.13,5,1,5,0.02
2013-3-15,40.5,34.6,30.1,36.4,31.4,27.2,93,88,80,30.14,29.83,6,1,6,0.20
2013-3-16,33.5,31.4,29.6,31.9,27.9,23.6,94,87,78,30.18,29.79,7,1,7,0.00
2013-3-17,34.6,29.9,24.7,24.5,21.8,17.3,78,71,65,30.26,30.05,7,2,7,0.00
2013-3-18,34.0,29.8,21.6,31.1,25.7,15.2,90,84,75,30.05,29.67,8,2,8,0.01
2013-3-19,31.3,22.3,16.7,19.1,14.2,10.9,79,71,59,30.06,29.83,7,2,7,0.05
2013-3-20,24.5,20.2,13.8,15.0,9.7,4.9,70,63,55,30.14,30.07,6,1,6,0.00
2013-3-21,33.3,24.0,13.5,18.8,12.8,5.3,72,62,54,30.10,30.05,3,0,3,0.00
2013-3-22,39.4,29.9,18.8,24.3,17.7,12.2,77,61,46,30.13,30.05,3,0,3,0.00
2013-3-23,44.0,33.6,24.7,30.5,22.2,18.5,80,64,46,30.19,30.08,6,1,6,0.00
2013-3-24,36.3,33.1,31.5,27.8,25.8,22.9,85,74,65,30.10,29.73,11,3,11,0.00
2013-3-25,36.1,32.7,30.2,29.1,26.2,23.7,82,77,71,30.08,29.77,8,2,11,0.00
2013-3-26,43.5,36.4,31.4,30.3,25.8,22.8,76,66,52,30.31,30.13,4,1,4,0.00
2013-3-27,42.2,36.7,30.8,29.3,25.1,19.9,75,63,52,30.37,30.30,2,0,2,0.00
2013-3-28,50.8,39.1,27.1,33.8,24.1,19.3,76,56,39,30.40,30.31,3,0,3,0.00
2013-3-29,54.6,43.5,33.4,32.9,25.7,22.2,70,51,35,30.33,30.23,5,0,5,0.00
2013-3-30,58.2,45.3,30.5,40.1,31.4,21.9,74,59,43,30.26,29.81,10,2,10,0.00
2013-3-31,57.1,45.6,36.3,42.2,35.8,24.8,85,70,46,29.86,29.68,6,1,6,0.00